Weather History for South Lake Tahoe, CA

Change the Weather History Date:

Monday, August 26, 2013

  Actual Average Record
Temperature  
Mean Temperature 58 °F 59 °F  
Max Temperature 76 °F 79 °F 91 °F (1988)
Min Temperature 40 °F 39 °F 27 °F (1978)
Degree Days  
Heating Degree Days 7 6  
Month to date heating degree days 123 124  
Since 1 June heating degree days 354 572  
Since 1 July heating degree days 160 262  
Cooling Degree Days 0 0  
Month to date cooling degree days 9 7  
Year to date cooling degree days 98 26  
Since 1 June cooling degree days 98 26  
Growing Degree Days 7 (Base 50)    
Moisture  
Dew Point 36 °F    
Average Humidity 48    
Maximum Humidity 76    
Minimum Humidity 19    
Precipitation  
Precipitation 0.00 in - 0.37 in (1973)
Month to date precipitation 0.51  
Year to date precipitation 6.44  
Sea Level Pressure  
Sea Level Pressure 30.06 in    
Wind  
Wind Speed 4 mph (SSW)    
Max Wind Speed 25 mph    
Max Gust Speed 36 mph    
Visibility 6 miles    
Events      
T = Trace of Precipitation, MM = Missing Value Source: NWS Daily Summary

Daily Weather History Graph

Daily Weather History Graph

Search for Another Location

Airport:

Trip Planner

Search our weather history database for the weather conditions in past years. The results will help you decide how hot, cold, wet, or windy it might be!

Date:

Astronomy

Aug. 26, 2013 Rise Set
Actual Time 6:23 AM PDT 7:38 PM PDT
Civil Twilight 5:56 AM PDT 8:06 PM PDT
Nautical Twilight 5:23 AM PDT 8:39 PM PDT
Astronomical Twilight 4:48 AM PDT 9:13 PM PDT
Moon 10:56 PM PDT (8/26) 12:26 PM PDT (8/26)
Length of Visible Light 14h 10m
Length of Day
13h 15m
Waning Gibbous, 65% of the Moon is Illuminated
Aug 26
Waning Gibbous
Aug 28
Last Quarter
Sep 5
New
Sep 12
First Quarter
Sep 19
Full

Hourly Weather History & Observations

Time (PDT) Temp. Windchill Dew Point Humidity Pressure Visibility Wind Dir Wind Speed Gust Speed Precip Events Conditions
12:53 AM 46.9 °F - 37.9 °F 71% 30.01 in 10.0 mi Calm Calm - N/A   Overcast
1:53 AM 44.1 °F 42.5 °F 37.0 °F 76% 30.02 in 10.0 mi South 3.5 mph - N/A   Overcast
2:53 AM 43.0 °F - 36.0 °F 76% 30.02 in 10.0 mi Calm Calm - N/A   Overcast
3:53 AM 42.1 °F - 35.1 °F 76% 30.04 in 8.0 mi Calm Calm - N/A   Overcast
4:53 AM 42.1 °F - 35.1 °F 76% 30.03 in 7.0 mi Calm Calm - N/A   Mostly Cloudy
5:53 AM 41.0 °F - 34.0 °F 76% 30.05 in 7.0 mi Calm Calm - N/A   Clear
6:40 AM 39.2 °F - 33.8 °F 81% 30.18 in 4.0 mi Calm Calm - N/A   Haze
6:53 AM 41.0 °F - 34.0 °F 76% 30.07 in 4.0 mi Calm Calm - N/A   Haze
7:53 AM 48.9 °F - 39.9 °F 71% 30.06 in 4.0 mi Calm Calm - N/A   Haze
8:51 AM 64.4 °F - 37.4 °F 37% 30.19 in 5.0 mi South 6.9 mph - N/A   Haze
8:53 AM 64.9 °F - 37.0 °F 36% 30.03 in 5.0 mi South 6.9 mph - N/A   Haze
9:53 AM 68.0 °F - 34.0 °F 28% 30.03 in 6.0 mi SSW 10.4 mph 17.3 mph N/A   Haze
10:18 AM 69.8 °F - 33.8 °F 27% 30.19 in 4.0 mi SSW 11.5 mph 25.3 mph N/A   Haze
10:42 AM 69.8 °F - 33.8 °F 27% 30.19 in 2.5 mi SSW 10.4 mph 24.2 mph N/A   Haze
10:53 AM 69.1 °F - 34.0 °F 27% 30.04 in 2.5 mi SSW 9.2 mph 27.6 mph N/A   Haze
11:53 AM 71.1 °F - 32.0 °F 24% 30.03 in 2.0 mi SSW 11.5 mph 28.8 mph N/A   Haze
12:29 PM 71.6 °F - 30.2 °F 22% 30.17 in 3.0 mi SSW 10.4 mph 25.3 mph N/A   Haze
12:53 PM 73.0 °F - 30.9 °F 21% 30.02 in 4.0 mi SSW 13.8 mph 25.3 mph N/A   Haze
1:13 PM 73.4 °F - 30.2 °F 20% 30.17 in 5.0 mi SSW 12.7 mph 27.6 mph N/A   Haze
1:53 PM 75.0 °F - 30.9 °F 20% 30.01 in 7.0 mi SSW 13.8 mph 21.9 mph N/A   Clear
2:53 PM 75.9 °F - 32.0 °F 20% 30.00 in 7.0 mi SW 8.1 mph 21.9 mph N/A   Clear
3:53 PM 73.9 °F - 35.1 °F 24% 30.01 in 7.0 mi South 11.5 mph 20.7 mph N/A   Partly Cloudy
4:37 PM 73.4 °F - 35.6 °F 25% 30.15 in 4.0 mi Variable 6.9 mph 16.1 mph N/A   Haze
4:46 PM 73.4 °F - 35.6 °F 25% 30.15 in 5.0 mi SW 9.2 mph - N/A   Haze
4:53 PM 73.0 °F - 36.0 °F 26% 30.00 in 6.0 mi SSW 5.8 mph 16.1 mph N/A   Haze
5:53 PM 71.1 °F - 37.0 °F 29% 30.00 in 7.0 mi Variable 6.9 mph - N/A   Mostly Cloudy
6:53 PM 69.1 °F - 39.0 °F 33% 30.01 in 9.0 mi SSW 6.9 mph - N/A   Overcast
7:53 PM 64.0 °F - 41.0 °F 43% 30.01 in 10.0 mi South 3.5 mph - N/A   Overcast
8:53 PM 59.0 °F - 42.1 °F 53% 30.00 in 10.0 mi Calm Calm - N/A   Overcast
9:53 PM 57.0 °F - 42.1 °F 57% 30.00 in 10.0 mi Calm Calm - N/A   Overcast
10:53 PM 53.1 °F - 41.0 °F 64% 30.02 in 9.0 mi Calm Calm - N/A   Overcast
11:30 PM 51.8 °F - 39.2 °F 62% 30.18 in 4.0 mi Calm Calm - N/A   Haze
11:53 PM 50.0 °F - 37.9 °F 63% 30.02 in 3.0 mi Calm Calm - N/A   Haze